N0RUX-13 Weather Reports


Display with metric or nautical units.
time (UTC)temp
F
wind
direction
speed
MPH
gust
MPH
rain 1hr
in
rain 24hr
in
rain mn
in
humidity
%
barometer
mb
20240624072035 69 190 0.0 1.0 0.00 0.00 0.00 45 1003.4
20240624071035 69 221 0.0 0.0 0.00 0.00 0.00 45 1003.4
20240624070035 69 225 0.0 1.0 0.00 0.00 0.00 46 1003.4
20240624065034 69 224 0.0 1.0 0.00 0.00 0.00 47 1003.5
20240624064034 69 108 0.0 0.0 0.00 0.00 0.00 50 1003.7
20240624063034 70 108 0.0 0.0 0.00 0.00 0.00 48 1003.7
20240624062034 70 108 0.0 0.0 0.00 0.00 0.00 47 1003.9
20240624061033 71 108 0.0 0.0 0.00 0.00 0.00 47 1003.9
20240624060035 72 108 0.0 0.0 0.00 0.00 0.00 44 1004.0
20240624055035 72 108 0.0 0.0 0.00 0.00 0.00 45 1004.1
20240624054035 73 108 0.0 1.0 0.00 0.00 0.00 43 1004.2
20240624053035 74 108 0.0 1.0 0.00 0.00 0.00 41 1004.3
20240624052034 74 108 0.0 0.0 0.00 0.00 0.00 40 1004.3
20240624051034 74 252 0.0 1.0 0.00 0.00 0.00 39 1004.2
20240624050034 74 252 0.0 2.0 0.00 0.00 0.00 40 1004.2
20240624045035 73 141 0.0 1.0 0.00 0.00 0.00 43 1004.1
20240624044033 73 141 0.0 0.0 0.00 0.00 0.00 44 1003.9
20240624043033 73 141 0.0 0.0 0.00 0.00 0.00 44 1004.0
20240624042035 74 141 0.0 0.0 0.00 0.00 0.00 44 1003.9
20240624041035 75 141 0.0 0.0 0.00 0.00 0.00 42 1003.9
20240624040035 75 141 0.0 1.0 0.00 0.00 0.00 40 1003.6
20240624035034 76 176 0.0 0.0 0.00 0.00 0.00 40 1003.6
20240624034034 77 101 0.0 0.0 0.00 0.00 0.00 38 1003.5
20240624033034 78 102 0.0 1.0 0.00 0.00 0.00 37 1003.3
20240624032034 79 103 0.0 0.0 0.00 0.00 0.00 36 1003.1
20240624031034 79 104 0.0 1.0 0.00 0.00 0.00 36 1003.1
20240624030033 79 58 0.0 1.0 0.00 0.00 0.00 36 1002.9
20240624025035 80 87 0.0 2.0 0.00 0.00 0.00 35 1003.1
20240624024035 80 72 0.0 2.0 0.00 0.00 0.00 34 1003.0
20240624023035 82 118 0.0 0.0 0.00 0.00 0.00 30 1002.6
20240624022035 83 118 0.0 2.0 0.00 0.00 0.00 30 1002.6
20240624020034 84 117 0.0 1.0 0.00 0.00 0.00 29 1002.7
20240624015034 85 228 0.0 1.0 0.00 0.00 0.00 28 1002.7
20240624014034 86 174 0.0 7.0 0.00 0.00 0.00 27 1002.8
20240624013034 86 104 2.0 6.0 0.00 0.00 0.00 26 1002.9
20240624012033 86 310 1.0 7.0 0.00 0.00 0.00 27 1002.9
20240624002034 88 58 4.0 4.0 0.00 0.00 0.00 26 1002.2
20240624001034 88 53 4.0 2.0 0.00 0.00 0.00 26 1002.5
20240624000034 89 25 0.0 1.0 0.00 0.00 0.00 26 1002.5
20240623235034 91 13 0.0 3.0 0.00 0.00 0.00 25 1002.3
20240623234034 92 73 0.0 1.0 0.00 0.00 0.00 22 1002.2
20240623233034 94 323 1.0 3.0 0.00 0.00 0.00 21 1002.3
20240623232033 95 84 0.0 3.0 0.00 0.00 0.00 18 1002.4
20240623231035 96 90 2.0 7.0 0.00 0.00 0.00 18 1002.4
20240623230037 97 92 2.0 1.0 0.00 0.00 0.00 19 1002.4
20240623225035 96 82 0.0 2.0 0.00 0.00 0.00 18 1002.5
20240623224035 97 86 1.0 3.0 0.00 0.00 0.00 18 1002.6
20240623223034 95 155 0.0 1.0 0.00 0.00 0.00 18 1002.7
20240623222034 94 99 0.0 3.0 0.00 0.00 0.00 22 1002.9
20240623221034 95 97 1.0 2.0 0.00 0.00 0.00 18 1003.1
20240623220034 97 95 1.0 2.0 0.00 0.00 0.00 20 1003.3
20240623215034 98 102 1.0 6.0 0.00 0.00 0.00 17 1003.2
20240623214033 97 210 2.0 6.0 0.00 0.00 0.00 18 1003.3
20240623212035 100 222 4.0 5.0 0.00 0.00 0.00 18 1003.6
20240623211035 98 30 1.0 4.0 0.00 0.00 0.00 18 1003.7
20240623210035 98 214 1.0 4.0 0.00 0.00 0.00 19 1003.9
20240623205035 98 243 3.0 3.0 0.00 0.00 0.00 17 1003.9
20240623203034 97 248 2.0 6.0 0.00 0.00 0.00 18 1004.3
20240623202034 97 219 1.0 8.0 0.00 0.00 0.00 18 1004.4
20240623201034 97 81 3.0 5.0 0.00 0.00 0.00 17 1004.5
20240623200034 97 81 3.0 7.0 0.00 0.00 0.00 18 1004.6
20240623195034 97 106 1.0 8.0 0.00 0.00 0.00 17 1004.7
20240623194033 97 86 1.0 5.0 0.00 0.00 0.00 19 1004.9
20240623193033 98 96 2.0 6.0 0.00 0.00 0.00 17 1005.0
20240623191035 96 107 1.0 5.0 0.00 0.00 0.00 19 1005.4
20240623190035 94 118 2.0 6.0 0.00 0.00 0.00 20 1005.6
20240623185035 93 249 0.0 3.0 0.00 0.00 0.00 21 1005.8
20240623184034 92 68 0.0 5.0 0.00 0.00 0.00 20 1005.9
20240623183034 95 240 0.0 2.0 0.00 0.00 0.00 18 1005.9
20240623182034 95 110 2.0 4.0 0.00 0.00 0.00 19 1006.0
20240623181034 94 228 3.0 4.0 0.00 0.00 0.00 20 1006.2
20240623180034 94 113 1.0 7.0 0.00 0.00 0.00 19 1006.2
20240623175033 94 138 3.0 4.0 0.00 0.00 0.00 18 1006.3
20240623174033 95 147 1.0 7.0 0.00 0.00 0.00 18 1006.3
20240623173035 95 101 4.0 8.0 0.00 0.00 0.00 18 1006.3
20240623172035 96 6 3.0 6.0 0.00 0.00 0.00 18 1006.4
20240623171035 95 241 2.0 3.0 0.00 0.00 0.00 18 1006.5
20240623170034 94 95 2.0 7.0 0.00 0.00 0.00 17 1006.5
20240623165034 93 221 3.0 4.0 0.00 0.00 0.00 20 1006.4
20240623164034 94 74 6.0 4.0 0.00 0.00 0.00 19 1006.6
20240623162034 93 141 0.0 4.0 0.00 0.00 0.00 25 1007.0
20240623161033 92 110 2.0 4.0 0.00 0.00 0.00 26 1007.1
20240623160033 92 127 0.0 4.0 0.00 0.00 0.00 26 1007.3
20240623155033 91 81 0.0 3.0 0.00 0.00 0.00 25 1007.5
20240623153035 90 171 2.0 3.0 0.00 0.00 0.00 27 1007.6
20240623151034 88 86 1.0 3.0 0.00 0.00 0.00 27 1007.8
20240623150034 87 41 1.0 3.0 0.00 0.00 0.00 29 1007.9
20240623144033 86 56 0.0 1.0 0.00 0.00 0.00 32 1008.1
20240623143033 85 110 0.0 1.0 0.00 0.00 0.00 34 1008.2
20240623142033 86 54 0.0 0.0 0.00 0.00 0.00 34 1008.2
20240623141035 83 54 0.0 1.0 0.00 0.00 0.00 33 1008.4
20240623135035 79 37 0.0 1.0 0.00 0.00 0.00 42 1008.6
20240623134037 77 37 0.0 0.0 0.00 0.00 0.00 42 1008.6
20240623133035 74 37 0.0 0.0 0.00 0.00 0.00 45 1008.6
20240623132034 74 37 0.0 0.0 0.00 0.00 0.00 42 1008.7
20240623131034 72 37 0.0 1.0 0.00 0.00 0.00 41 1008.8
20240623130035 69 37 0.0 1.0 0.00 0.00 0.00 43 1008.9
20240623125034 69 37 0.0 1.0 0.00 0.00 0.00 46 1009.0
20240623124034 68 37 0.0 1.0 0.00 0.00 0.00 44 1008.9
20240623123033 68 31 0.0 1.0 0.00 0.00 0.00 46 1008.9
20240623122033 66 22 0.0 1.0 0.00 0.00 0.00 49 1008.9
20240623121033 66 22 0.0 0.0 0.00 0.00 0.00 47 1008.9
20240623120036 65 22 0.0 0.0 0.00 0.00 0.00 46 1009.0
20240623115035 65 22 0.0 0.0 0.00 0.00 0.00 46 1009.0
20240623114035 65 22 0.0 1.0 0.00 0.00 0.00 47 1008.9
20240623113034 66 122 0.0 1.0 0.00 0.00 0.00 46 1008.9
20240623112034 66 344 0.0 1.0 0.00 0.00 0.00 45 1008.8
20240623111034 65 34 0.0 1.0 0.00 0.00 0.00 45 1008.8
20240623110034 65 148 0.0 3.0 0.00 0.00 0.00 44 1008.8
20240623105033 65 346 0.0 1.0 0.00 0.00 0.00 45 1008.6
20240623104033 65 20 0.0 1.0 0.00 0.00 0.00 43 1008.6
20240623103033 66 82 0.0 1.0 0.00 0.00 0.00 44 1008.7
20240623102033 66 156 0.0 0.0 0.00 0.00 0.00 43 1008.5
20240623101035 67 156 0.0 0.0 0.00 0.00 0.00 42 1008.5
20240623100034 68 156 0.0 1.0 0.00 0.00 0.00 41 1008.6
20240623095034 68 339 0.0 1.0 0.00 0.00 0.00 41 1008.6
20240623094034 68 337 1.0 2.0 0.00 0.00 0.00 41 1008.6
20240623093034 67 155 0.0 1.0 0.00 0.00 0.00 41 1008.7
20240623092034 68 202 0.0 3.0 0.00 0.00 0.00 41 1008.8
20240623091033 67 184 0.0 2.0 0.00 0.00 0.00 42 1009.0
20240623090033 66 14 0.0 1.0 0.00 0.00 0.00 43 1009.0
20240623085034 65 37 1.0 3.0 0.00 0.00 0.00 46 1008.9
20240623084035 65 34 4.0 3.0 0.00 0.00 0.00 46 1009.0
20240623083034 64 41 0.0 1.0 0.00 0.00 0.00 47 1008.9
20240623082035 64 40 2.0 3.0 0.00 0.00 0.00 48 1009.0
20240623081034 63 131 0.0 1.0 0.00 0.00 0.00 48 1009.2
20240623080034 64 79 0.0 0.0 0.00 0.00 0.00 47 1009.1
20240623074033 65 333 0.0 0.0 0.00 0.00 0.00 45 1009.1
20240623073033 65 333 0.0 1.0 0.00 0.00 0.00 44 1009.1